Latest Weather Observations for Nowra

IDN60801

Issued at 4:04 am EST Saturday 1 October 2016 (issued every 30 minutes, with the page automatically refreshed every 10 minutes)

About weather observations | Map of weather stations | Latest weather observations for NSW | Other Formats
Station Details ID: 068072 Name: NOWRA RAN AIR STATION AWS Lat: -34.95 Lon: 150.54 Height: 109.0 m
Data from the previous 72 hours. | See also: Recent months at Nowra
Date/Time
EST
Temp
°C
App
Temp
°C
Dew
Point
°C
Rel
Hum
%
Delta-T
°C
Wind Press
QNH
hPa
Press
MSL
hPa
Rain since
9am
mm
Dir  Spd
km/h
Gust
km/h
Spd
kts
Gust
kts
01/04:00am 13.3 6.5 6.9 65 3.1 WNW 32 50 17 27 999.4 999.3 0.2
01/03:52am 13.4 7.0 7.0 65 3.1 WNW 30 50 16 27 999.3 999.2 0.2
01/03:30am 13.2 6.4 6.8 65 3.1 WNW 32 46 17 25 998.9 998.8 0.2
01/03:21am 13.0 6.9 6.8 66 3.0 WNW 28 46 15 25 998.9 998.8 0.2
01/03:00am 12.4 6.7 6.5 67 2.8 WNW 26 35 14 19 998.9 998.8 0.2
01/02:30am 12.6 6.0 6.2 65 3.0 WNW 30 46 16 25 999.0 998.9 0.2
01/02:25am 12.6 6.4 6.2 65 3.0 WNW 28 46 15 25 999.0 998.9 0.2
01/02:00am 12.3 6.8 5.7 64 3.1 WNW 24 39 13 21 999.5 999.4 0.2
01/01:30am 12.1 7.1 4.8 61 3.4 WNW 20 28 11 15 999.7 999.6 0.2
01/01:00am 12.3 7.5 4.5 59 3.6 WNW 19 24 10 13 999.7 999.6 0.2
01/12:30am 12.3 8.3 4.8 60 3.5 W 15 24 8 13 999.8 999.7 0.2
01/12:00am 11.3 8.8 5.0 65 2.9 NW 7 13 4 7 999.6 999.5 0.2
 
Date/Time
EST
Temp
°C
App
Temp
°C
Dew
Point
°C
Rel
Hum
%
Delta-T
°C
Wind Press
QNH
hPa
Press
MSL
hPa
Rain since
9am
mm
Dir  Spd
km/h
Gust
km/h
Spd
kts
Gust
kts
30/11:30pm 11.5 7.5 4.7 63 3.1 W 15 24 8 13 999.9 999.8 0.2
30/11:00pm 12.1 5.2 4.6 60 3.5 WNW 30 41 16 22 999.5 999.4 0.2
30/10:30pm 12.5 3.8 4.2 57 3.8 WNW 39 61 21 33 999.6 999.5 0.2
30/10:08pm 12.8 5.8 4.3 56 3.9 WNW 30 48 16 26 998.9 998.8 0.2
30/10:00pm 13.0 5.6 4.2 55 4.1 WNW 32 48 17 26 998.9 998.8 0.2
30/09:30pm 13.3 4.6 4.2 54 4.2 WNW 39 57 21 31 999.1 999.0 0.2
30/09:12pm 13.4 5.9 4.6 55 4.1 WNW 33 54 18 29 999.0 998.9 0.2
30/09:00pm 13.1 7.0 4.8 57 3.9 WNW 26 41 14 22 999.1 999.0 0.2
30/08:44pm 13.3 6.8 4.7 56 4.0 WNW 28 52 15 28 999.0 998.9 0.2
30/08:30pm 12.9 7.2 4.8 58 3.7 WNW 24 37 13 20 998.8 998.7 0.2
30/08:00pm 12.9 5.5 4.8 58 3.8 WNW 33 48 18 26 998.7 998.6 0.2
30/07:30pm 13.0 5.8 4.9 58 3.8 WNW 32 50 17 27 998.3 998.2 0.2
30/07:05pm 12.9 5.6 4.6 57 3.8 WNW 32 50 17 27 998.2 998.1 0.2
30/07:00pm 13.0 5.5 4.7 57 3.9 WNW 33 50 18 27 998.3 998.2 0.2
30/06:30pm 13.0 5.7 4.7 57 3.8 WNW 32 50 17 27 997.9 997.8 0.2
30/06:02pm 13.4 6.9 4.8 56 4.0 WNW 28 48 15 26 997.8 997.7 0.2
30/06:00pm 13.3 7.2 5.0 57 3.9 WNW 26 43 14 23 997.9 997.8 0.2
30/05:30pm 14.2 7.4 5.0 54 4.3 NW 30 52 16 28 997.3 997.2 0.2
30/05:00pm 14.5 8.1 5.3 54 4.4 WNW 28 43 15 23 997.2 997.1 0.2
30/04:30pm 15.2 9.2 5.1 51 4.8 WNW 26 54 14 29 996.6 996.5 0.2
30/04:00pm 15.4 8.9 4.8 49 5.0 NW 28 44 15 24 996.0 995.9 0.2
30/03:30pm 16.3 8.7 5.6 49 5.2 WNW 35 48 19 26 995.6 995.5 0.2
30/03:01pm 15.9 8.4 4.6 47 5.3 NW 33 56 18 30 995.5 995.3 0.2
30/03:00pm 16.0 8.7 4.4 46 5.5 NW 32 46 17 25 995.5 995.3 0.2
30/02:30pm 15.8 8.4 4.8 48 5.2 NNW 33 48 18 26 995.2 995.0 0.2
30/02:00pm 15.9 9.2 5.8 51 4.9 NW 30 44 16 24 995.4 995.2 0.2
30/01:46pm 15.6 8.5 6.3 54 4.5 NW 33 48 18 26 995.6 995.5 0.2
30/01:36pm 15.0 9.1 6.0 55 4.3 NNW 26 48 14 26 995.6 995.5 0.2
30/01:30pm 15.2 10.6 5.4 52 4.7 NNW 19 39 10 21 995.5 995.3 0.2
30/01:00pm 14.2 10.0 7.3 63 3.4 NNW 19 32 10 17 995.7 995.6 0.2
30/12:30pm 14.5 10.1 7.5 63 3.5 N 20 32 11 17 995.8 995.7 0.2
30/12:00pm 13.3 9.1 7.5 68 2.9 N 19 32 10 17 996.4 996.3 0.0
30/11:30am 14.5 9.4 5.8 56 4.2 NNW 22 35 12 19 996.5 996.4 0.0
30/11:00am 14.9 8.6 5.7 54 4.4 NNW 28 46 15 25 996.2 996.1 0.0
30/10:30am 15.1 8.7 5.0 51 4.8 NNW 28 43 15 23 996.3 996.2 0.0
30/10:00am 14.4 8.7 4.7 52 4.6 NNW 24 37 13 20 996.5 996.4 0.0
30/09:30am 14.0 9.1 4.0 51 4.6 NNW 19 30 10 16 996.7 996.6 0.0
30/09:00am 13.8 7.9 3.9 51 4.6 NNW 24 39 13 21 996.7 996.6 2.2
30/08:30am 13.6 6.9 3.7 51 4.5 NNW 28 46 15 25 996.7 996.6 2.2
30/08:00am 13.2 8.0 3.8 53 4.3 NNW 20 33 11 18 996.5 996.4 2.2
30/07:30am 13.6 8.0 3.4 50 4.6 NNW 22 30 12 16 996.2 996.1 2.2
30/07:00am 11.9 8.1 3.7 57 3.7 N 13 17 7 9 996.1 996.0 2.2
30/06:30am 11.7 7.8 3.5 57 3.6 N 13 19 7 10 996.1 996.0 2.2
30/06:00am 10.7 7.1 3.0 59 3.4 NNW 11 15 6 8 995.8 995.7 2.2
30/05:30am 9.2 6.0 3.0 65 2.7 N 9 15 5 8 995.8 995.7 2.2
30/05:00am 9.7 6.5 3.0 63 2.9 NNW 9 13 5 7 995.6 995.5 2.2
30/04:30am 10.7 8.0 2.5 57 3.5 NNW 6 9 3 5 995.5 995.3 2.2
30/04:00am 11.6 8.0 2.9 55 3.9 N 11 20 6 11 995.4 995.2 2.2
30/03:30am 11.7 7.3 2.5 53 4.0 NNW 15 20 8 11 995.5 995.3 2.2
30/03:00am 12.4 7.0 2.6 51 4.3 NNW 20 32 11 17 995.5 995.3 2.2
30/02:30am 12.2 7.3 2.1 50 4.4 NNW 17 26 9 14 995.7 995.6 2.2
30/02:00am 12.6 7.3 1.6 47 4.8 NW 19 30 10 16 995.9 995.8 2.2
30/01:30am 12.6 7.1 1.9 48 4.6 NW 20 30 11 16 995.7 995.6 2.2
30/01:00am 12.4 6.5 2.0 49 4.5 NW 22 33 12 18 995.8 995.7 2.2
30/12:30am 12.1 6.4 2.8 53 4.1 NW 22 32 12 17 996.1 996.0 2.2
30/12:00am 11.8 6.6 3.3 56 3.8 NW 20 33 11 18 996.3 996.2 2.2
 
Date/Time
EST
Temp
°C
App
Temp
°C
Dew
Point
°C
Rel
Hum
%
Delta-T
°C
Wind Press
QNH
hPa
Press
MSL
hPa
Rain since
9am
mm
Dir  Spd
km/h
Gust
km/h
Spd
kts
Gust
kts
29/11:30pm 12.4 6.4 3.1 53 4.1 WNW 24 39 13 21 996.8 996.7 2.2
29/11:00pm 12.3 8.2 2.5 51 4.3 NW 13 20 7 11 996.5 996.4 2.2
29/10:30pm 12.4 8.4 2.8 52 4.2 NW 13 20 7 11 996.5 996.4 2.2
29/10:00pm 12.1 8.6 3.3 55 3.9 NW 11 24 6 13 996.6 996.5 2.2
29/09:30pm 12.3 8.4 3.3 54 4.0 NNW 13 22 7 12 996.4 996.3 2.2
29/09:00pm 12.3 8.4 3.3 54 4.0 N 13 20 7 11 996.0 995.9 2.2
29/08:30pm 13.3 8.9 2.8 49 4.7 NNW 15 22 8 12 995.7 995.6 2.2
29/08:00pm 13.9 10.6 2.2 45 5.2 NNW 9 17 5 9 995.7 995.6 2.2
29/07:30pm 14.2 9.8 2.5 45 5.2 NW 15 28 8 15 995.7 995.6 2.2
29/07:00pm 14.3 11.2 3.5 48 5.0 NW 9 17 5 9 995.1 994.9 2.2
29/06:30pm 14.5 11.0 3.3 47 5.1 WNW 11 15 6 8 994.8 994.6 2.2
29/06:00pm 15.4 10.1 2.9 43 5.7 WNW 20 30 11 16 994.3 994.1 2.2
29/05:30pm 16.5 10.0 2.9 40 6.2 WNW 26 39 14 21 994.4 994.2 2.2
29/05:00pm 17.4 11.3 3.0 38 6.7 WNW 24 35 13 19 994.1 993.9 2.2
29/04:30pm 17.6 10.4 2.8 37 6.8 WNW 30 44 16 24 993.9 993.7 2.2
29/04:00pm 19.2 13.2 3.4 35 7.5 NW 24 32 13 17 993.3 993.1 2.2
29/03:30pm 19.7 14.6 4.2 36 7.5 NW 20 37 11 20 992.9 992.7 2.2
29/03:00pm 19.4 16.5 10.9 58 4.7 N 17 26 9 14 992.5 992.4 2.2
29/02:30pm 18.6 16.0 11.9 65 3.7 N 17 24 9 13 992.5 992.4 2.0
29/02:00pm 17.6 15.5 13.7 78 2.2 N 17 22 9 12 993.2 993.0 2.0
29/01:30pm 15.9 14.8 13.2 84 1.5 N 11 15 6 8 994.2 994.0 2.0
29/01:18pm 15.9 14.8 13.0 83 1.6 NNW 11 15 6 8 994.4 994.2 2.0
29/01:00pm 16.4 15.3 11.8 74 2.5 NW 9 11 5 6 994.5 994.3 1.4
29/12:30pm 16.5 14.2 10.6 68 3.2 N 13 19 7 10 995.0 994.8 1.4
29/12:00pm 16.8 15.6 12.7 77 2.3 N 11 17 6 9 994.8 994.6 1.4
29/11:30am 14.8 13.5 12.5 86 1.3 N 11 15 6 8 996.2 996.1 1.4
29/11:00am 14.4 12.5 11.7 84 1.5 NNW 13 19 7 10 996.6 996.5 1.2
29/10:30am 13.9 10.5 10.7 81 1.7 NNE 19 24 10 13 997.3 997.2 1.2
29/10:00am 13.4 12.4 12.3 93 0.6 NNE 9 15 5 8 997.9 997.8 1.0
29/09:43am 12.8 11.9 11.5 92 0.7 NNW 7 13 4 7 998.7 998.6 1.0
29/09:30am 12.5 11.6 11.4 93 0.6 N 7 9 4 5 998.9 998.8 0.8
29/09:00am 12.6 11.7 11.3 92 0.7 N 7 11 4 6 999.4 999.3 5.4
29/08:30am 12.8 11.6 11.5 92 0.7 N 9 17 5 9 999.8 999.7 4.2
29/08:00am 12.2 12.2 11.1 93 0.6 ENE 2 7 1 4 999.8 999.7 3.4
29/07:30am 12.1 11.0 11.8 98 0.2 WNW 9 13 5 7 1000.4 1000.3 2.6
29/07:00am 11.8 11.0 11.6 99 0.1 SSW 7 11 4 6 1000.2 1000.1 1.0
29/06:30am 11.9 10.9 11.0 94 0.5 SE 7 9 4 5 1000.8 1000.7 0.2
29/06:00am 12.1 10.9 9.5 84 1.3 WNW 6 9 3 5 1001.4 1001.3 0.0
29/05:30am 12.9 10.2 8.8 76 2.1 NW 13 20 7 11 1002.0 1001.9 0.0
29/05:00am 13.3 11.0 9.0 75 2.2 NNW 11 15 6 8 1001.6 1001.5 0.0
29/04:30am 13.6 11.3 9.1 74 2.3 N 11 17 6 9 1001.9 1001.8 0.0
29/04:00am 13.8 11.6 9.5 75 2.2 N 11 20 6 11 1002.1 1002.0 0.0
29/03:30am 12.5 11.0 8.4 76 2.0 N 6 9 3 5 1003.1 1002.9 0.0
29/03:00am 13.3 10.5 8.4 72 2.5 NNW 13 20 7 11 1003.7 1003.6 0.0
29/02:30am 13.6 10.1 8.9 73 2.4 N 17 30 9 16 1004.3 1004.2 0.0
29/02:00am 12.2 9.5 8.9 80 1.7 NW 13 17 7 9 1005.2 1005.1 0.0
29/01:30am 11.5 9.0 8.2 80 1.6 NNW 11 17 6 9 1005.9 1005.8 0.0
29/01:00am 10.6 7.3 8.2 85 1.2 NW 15 17 8 9 1006.7 1006.6 0.0
29/12:30am 8.0 6.0 7.1 94 0.4 NW 7 9 4 5 1007.0 1006.9 0.0
29/12:00am 8.8 8.3 7.9 94 0.4 CALM 0 6 0 3 1007.6 1007.5 0.0
 
Date/Time
EST
Temp
°C
App
Temp
°C
Dew
Point
°C
Rel
Hum
%
Delta-T
°C
Wind Press
QNH
hPa
Press
MSL
hPa
Rain since
9am
mm
Dir  Spd
km/h
Gust
km/h
Spd
kts
Gust
kts
28/11:30pm 9.8 7.6 7.7 87 1.0 WNW 9 11 5 6 1007.9 1007.8 0.0
28/11:00pm 9.0 6.7 7.3 89 0.8 NW 9 9 5 5 1008.5 1008.4 0.0
28/10:30pm 10.6 8.1 8.4 86 1.1 WNW 11 13 6 7 1008.7 1008.6 0.0
28/10:00pm 10.0 8.7 9.2 95 0.4 WNW 6 13 3 7 1009.0 1008.9 0.0
28/09:30pm 8.7 8.2 7.8 94 0.4 CALM 0 0 0 0 1009.3 1009.2 0.0
28/09:00pm 10.4 9.8 8.8 90 0.8 W 2 7 1 4 1009.6 1009.5 0.0
28/08:30pm 10.2 9.8 8.3 88 0.9 CALM 0 0 0 0 1009.9 1009.8 0.0
28/08:00pm 11.0 10.8 9.1 88 1.0 CALM 0 6 0 3 1009.8 1009.7 0.0
28/07:30pm 11.2 9.2 8.8 85 1.2 W 9 9 5 5 1009.9 1009.8 0.0
28/07:00pm 12.9 11.4 8.4 74 2.3 SE 6 7 3 4 1009.7 1009.6 0.0
28/06:30pm 13.6 11.5 8.4 71 2.6 E 9 13 5 7 1009.7 1009.6 0.0
28/06:00pm 14.2 11.7 8.2 67 3.0 E 11 15 6 8 1009.8 1009.7 0.0
28/05:30pm 15.2 11.4 7.5 60 3.8 ENE 17 20 9 11 1010.0 1009.9 0.0
28/05:00pm 15.9 11.4 6.9 55 4.5 ENE 20 26 11 14 1010.0 1009.9 0.0
28/04:30pm 16.6 12.0 6.7 52 4.9 ENE 20 30 11 16 1009.9 1009.8 0.0
28/04:00pm 17.0 11.6 6.2 49 5.3 ENE 24 28 13 15 1010.1 1010.0 0.0
28/03:30pm 17.3 12.8 6.8 50 5.2 ENE 20 28 11 15 1010.3 1010.2 0.0
28/03:00pm 17.5 12.9 6.7 49 5.4 ENE 20 32 11 17 1010.5 1010.4 0.0
28/02:30pm 18.1 13.8 7.8 51 5.3 ENE 20 28 11 15 1010.8 1010.7 0.0
28/02:00pm 18.0 14.4 8.3 53 5.0 ENE 17 28 9 15 1011.3 1011.2 0.0
28/01:30pm 17.7 13.5 7.4 51 5.2 E 19 26 10 14 1011.7 1011.7 0.0
28/01:00pm 18.7 14.7 6.5 45 6.1 E 17 26 9 14 1012.1 1012.1 0.0
28/12:30pm 18.7 16.4 5.9 43 6.3 NE 7 17 4 9 1012.3 1012.3 0.0
28/12:00pm 17.1 14.2 4.4 43 6.0 ENE 9 15 5 8 1012.5 1012.5 0.0
28/11:30am 18.0 15.0 3.9 39 6.7 SE 9 17 5 9 1013.0 1012.9 0.0
28/11:00am 17.9 14.2 4.5 41 6.4 E 13 20 7 11 1013.2 1013.1 0.0
28/10:30am 16.8 13.2 3.1 40 6.3 ENE 11 19 6 10 1013.6 1013.5 0.0
28/10:00am 16.5 14.0 3.6 42 6.0 NE 6 13 3 7 1013.8 1013.7 0.0
28/09:30am 16.5 14.3 5.2 47 5.4 NNE 6 9 3 5 1014.2 1014.1 0.0
28/09:00am 15.1 12.4 5.6 53 4.5 NW 9 15 5 8 1014.4 1014.3 0.0
28/08:30am 14.0 10.6 5.9 58 3.9 NW 13 17 7 9 1014.5 1014.4 0.0
28/08:00am 12.8 8.6 5.5 61 3.4 WNW 17 20 9 11 1014.5 1014.4 0.0
28/07:30am 11.5 6.8 5.2 65 2.9 WNW 19 26 10 14 1014.4 1014.3 0.0
28/07:00am 10.3 5.6 5.1 70 2.4 NW 19 24 10 13 1014.1 1014.0 0.0
28/06:30am 9.1 4.7 4.9 75 1.9 NW 17 20 9 11 1013.9 1013.8 0.0
28/06:00am 8.2 3.7 4.4 77 1.7 WNW 17 20 9 11 1013.5 1013.4 0.0
28/05:30am 8.0 3.1 4.2 77 1.7 WNW 19 20 10 11 1013.2 1013.1 0.0
28/05:00am 8.3 3.2 4.3 76 1.8 WNW 20 24 11 13 1013.1 1013.0 0.0
28/04:30am 8.4 3.5 4.0 74 1.9 WNW 19 24 10 13 1013.0 1012.9 0.0

Other Formats:

Comma delimited format used in spreadsheet applications
http://www.bom.gov.au/fwo/IDN60801/IDN60801.94750.axf

JavaScript Object Notation format (JSON) in row-major order
http://www.bom.gov.au/fwo/IDN60801/IDN60801.94750.json